World > North America > United States > California > Livermore   City of Livermore, CA

Livermore, CA Hourly Weather Forecast

Feedback E-mail the Weather

Quick Clicks

Weather World

24 Hour Forecast

Current Conditions - Clear. Temperature is 64°F18°C, dew point 52°F11°C, humidity 64%. Wind direction is SW at 5 mph8 km/h with visibility of 8 mi13 km. Barometric pressure is 29.97 in1015 mb.
Rest of Today - Sunny. Highs in the upper 70s. West winds 5 to 15 mph... Full Forecast
Tonight - Clear in the evening then becoming partly cloudy. Lows around 50. Southwest winds 5 to 15 mph... Full Forecast

Livermore Hourly Weather

24 Hour Weather Scroll
Fri, Apr 19
Noon
Fri, Apr 19
1:00 pm
Fri, Apr 19
2:00 pm
Fri, Apr 19
3:00 pm
Fri, Apr 19
4:00 pm
Fri, Apr 19
5:00 pm
Fri, Apr 19
6:00 pm
Fri, Apr 19
7:00 pm
Fri, Apr 19
8:00 pm
Fri, Apr 19
9:00 pm
Fri, Apr 19
10:00 pm
Fri, Apr 19
11:00 pm
Sat, Apr 20
Midnight
Sat, Apr 20
1:00 am
Sat, Apr 20
2:00 am
Sat, Apr 20
3:00 am
Sat, Apr 20
4:00 am
Sat, Apr 20
5:00 am
Sat, Apr 20
6:00 am
Sat, Apr 20
7:00 am
Sat, Apr 20
8:00 am
Sat, Apr 20
9:00 am
Sat, Apr 20
10:00 am
Sat, Apr 20
11:00 am
SunnySunnySunnySunnySunnySunnySunnySunnyClear Clear Clear Cloudy Overcast Partly Cloudy Overcast Clear Clear Partly Cloudy Overcast SunnySunnySunnySunnySunny
Sunny Sunny Sunny Sunny Sunny Sunny Sunny Sunny Clear Clear Clear Cloudy Overcast Partly Cloudy Overcast Clear Clear Partly Cloudy Overcast Sunny Sunny Sunny Sunny Sunny
64°F18°C 72°F22°C 74°F23°C 74°F23°C 72°F22°C 68°F20°C 64°F18°C 59°F15°C 55°F13°C 53°F12°C 52°F11°C 52°F11°C 52°F11°C 51°F11°C 50°F10°C 49°F9°C 48°F9°C 49°F9°C 50°F10°C 52°F11°C 56°F13°C 59°F15°C 63°F17°C 66°F19°C
46°F
8°C
47°F
8°C
47°F
9°C
49°F
9°C
50°F
10°C
50°F
10°C
47°F
8°C
47°F
9°C
44°F
7°C
43°F
6°C
42°F
6°C
42°F
6°C
43°F
6°C
43°F
6°C
43°F
6°C
42°F
6°C
42°F
6°C
42°F
6°C
45°F
7°C
45°F
7°C
45°F
7°C
44°F
7°C
44°F
7°C
44°F
7°C
29.97 in
1015 mb
29.91 in
1013 mb
29.91 in
1013 mb
29.88 in
1012 mb
29.88 in
1012 mb
29.91 in
1013 mb
29.91 in
1013 mb
29.91 in
1013 mb
29.94 in
1014 mb
29.94 in
1014 mb
29.94 in
1014 mb
29.94 in
1014 mb
29.94 in
1014 mb
29.94 in
1014 mb
29.94 in
1014 mb
29.97 in
1015 mb
29.97 in
1015 mb
30 in
1016 mb
30 in
1016 mb
30.03 in
1017 mb
30.06 in
1018 mb
30.06 in
1018 mb
30.06 in
1018 mb
30.06 in
1018 mb
65%39%38%39%43%49%54%65%69%70%70%71%72%72%75%78%81%83%81%80%71%57%49%44%
SWWWWWWSWWSWWSWSWSWSWSWSWSWSWSWSWSWSWSWSWWSWWSWWSW
4 mph
7 km/h
5 mph
8 km/h
6 mph
9 km/h
6 mph
10 km/h
8 mph
13 km/h
9 mph
15 km/h
7 mph
11 km/h
5 mph
9 km/h
5 mph
8 km/h
5 mph
8 km/h
5 mph
8 km/h
5 mph
8 km/h
5 mph
8 km/h
5 mph
8 km/h
5 mph
8 km/h
5 mph
9 km/h
5 mph
9 km/h
5 mph
8 km/h
5 mph
9 km/h
5 mph
8 km/h
5 mph
8 km/h
5 mph
8 km/h
5 mph
8 km/h
5 mph
9 km/h
0%0%0%0%0%0%0%0%0%0%0%0%0%0%0%0%0%0%0%0%0%0%0%0%
8 mi
13 km
6 mi
10 km
6 mi
10 km
6 mi
10 km
6 mi
10 km
6 mi
10 km
6 mi
10 km
6 mi
10 km
6 mi
10 km
6 mi
10 km
6 mi
10 km
6 mi
10 km
6 mi
10 km
6 mi
10 km
6 mi
10 km
6 mi
10 km
6 mi
10 km
6 mi
10 km
6 mi
10 km
6 mi
10 km
6 mi
10 km
6 mi
10 km
6 mi
10 km
6 mi
10 km

Day/Time
Weather
Condition
Temperature
Dew Point
Pressure
Humidity
Wind Direction
Wind Speed
Prob Precip %
Visibility
POP = Probability of Precipitation. ** Indicates missing data/values from KLVK model statistics.

Trending Headlines

Trending Entertainment Headlines

Livermore Radar Loop

Use the map search tool if you want to place a location marker on the radar map...

48 Hour API Forecast

Prob Precip % = Probability of Precipitation.

Livermore 36 Hour Forecast

POP = Probability of Precipitation. ** Indicates missing data/values from model statistics.

E-mail the Livermore Weather Forecast

Voice your opinion or tell us about page issues...

Livermore CA Weather - 3:28 pm

What are people saying?

Contact Us